Change the Weather History Date:

Wednesday, March 2, 2011

  Actual Average Record
Temperature  
Mean Temperature 26 °F -  
Max Temperature 37 °F - 62 °F (1991)
Min Temperature 12 °F - -10 °F (1980)
Degree Days  
Heating Degree Days 40    
Month to date heating degree days  
Since 1 July heating degree days  
Cooling Degree Days 0    
Month to date cooling degree days  
Year to date cooling degree days  
Moisture  
Dew Point 10 °F    
Average Humidity 45    
Maximum Humidity 74    
Minimum Humidity 30    
Precipitation  
Precipitation 0.00 in - 1.20 in (1976)
Month to date precipitation  
Year to date precipitation  
Sea Level Pressure  
Sea Level Pressure 29.97 in    
Wind  
Wind Speed 12 mph (WSW)    
Max Wind Speed 23 mph    
Max Gust Speed 38 mph    
Visibility 10 miles    
Events      
T = Trace of Precipitation, MM = Missing Value Source: NWS Daily Summary

Daily Weather History Graph

Daily Weather History Graph

Search for Another Location

Airport or City:

Trip Planner

Search our weather history database for the weather conditions in past years. The results will help you decide how hot, cold, wet, or windy it might be!

Date:

Astronomy

Mar. 02, 2011 Rise Set
Actual Time 6:27 AM EST 5:41 PM EST
Civil Twilight 5:58 AM EST 6:10 PM EST
Nautical Twilight 5:25 AM EST 6:43 PM EST
Astronomical Twilight 4:52 AM EST 7:16 PM EST
Moon 5:07 AM EST (3/2) 3:51 PM EST (3/2)
Length of Visible Light 12h 11m
Length of Day
11h 14m
Waning Crescent, 4% of the Moon is Illuminated
Mar 2
Waning Crescent
Mar 4
New
Mar 12
First Quarter
Mar 19
Full
Mar 26
Last Quarter

Hourly Weather History & Observations

Time (EST) Temp. Windchill Dew Point Humidity Pressure Visibility Wind Dir Wind Speed Gust Speed Precip Events Conditions
12:15 AM 17.6 °F 5.7 °F 3.2 °F 53% 30.05 in 10.0 mi ESE 10.4 mph - N/A   Clear
12:35 AM 17.6 °F 7.3 °F 3.2 °F 53% 30.04 in 10.0 mi ESE 8.1 mph - N/A   Clear
12:55 AM 19.4 °F 12.8 °F 3.2 °F 49% 30.03 in 10.0 mi ESE 4.6 mph - N/A   Clear
1:15 AM 17.6 °F 10.7 °F 3.2 °F 53% 30.02 in 10.0 mi SE 4.6 mph - N/A   Clear
1:35 AM 17.6 °F 6.4 °F 3.2 °F 53% 30.00 in 10.0 mi ESE 9.2 mph - N/A   Partly Cloudy
1:55 AM 21.2 °F 11.7 °F 5.0 °F 50% 29.99 in 10.0 mi ESE 8.1 mph - N/A   Mostly Cloudy
2:35 AM 23.0 °F 15.8 °F 5.0 °F 46% 29.96 in 10.0 mi ESE 5.8 mph - N/A   Overcast
2:55 AM 21.2 °F 13.6 °F 3.2 °F 46% 29.96 in 10.0 mi ESE 5.8 mph - N/A   Overcast
3:15 AM 26.6 °F 18.2 °F 8.6 °F 47% 29.94 in 10.0 mi ESE 8.1 mph - N/A   Overcast
3:55 AM 30.2 °F 25.4 °F 10.4 °F 44% 29.94 in 10.0 mi East 4.6 mph - N/A   Scattered Clouds
4:15 AM 30.2 °F 22.6 °F 8.6 °F 40% 29.94 in 10.0 mi SSE 8.1 mph - N/A   Overcast
4:55 AM 35.6 °F 28.6 °F 10.4 °F 35% 29.92 in 10.0 mi SW 9.2 mph 21.9 mph N/A   Partly Cloudy
5:15 AM 35.6 °F 28.6 °F 10.4 °F 35% 29.91 in 10.0 mi SW 9.2 mph 16.1 mph N/A   Clear
5:35 AM 35.6 °F 26.6 °F 10.4 °F 35% 29.91 in 10.0 mi SW 13.8 mph 19.6 mph N/A   Clear
5:55 AM 35.6 °F 27.1 °F 10.4 °F 35% 29.90 in 10.0 mi SW 12.7 mph 27.6 mph N/A   Clear
6:15 AM 35.6 °F 27.1 °F 12.2 °F 38% 29.89 in 10.0 mi SW 12.7 mph 21.9 mph N/A   Mostly Cloudy
6:35 AM 37.4 °F 28.9 °F 12.2 °F 36% 29.88 in 10.0 mi SW 13.8 mph 20.7 mph N/A   Overcast
6:55 AM 37.4 °F 27.5 °F 12.2 °F 36% 29.88 in 10.0 mi SW 18.4 mph 26.5 mph N/A   Overcast
7:15 AM 37.4 °F 28.5 °F 12.2 °F 36% 29.89 in 10.0 mi SW 15.0 mph 26.5 mph N/A   Overcast
7:35 AM 37.4 °F 27.8 °F 12.2 °F 36% 29.88 in 10.0 mi SW 17.3 mph 23.0 mph N/A   Overcast
8:35 AM 35.6 °F 28.0 °F 15.8 °F 44% 29.87 in 10.0 mi SW 10.4 mph 20.7 mph N/A   Overcast
8:55 AM 35.6 °F 27.1 °F 15.8 °F 44% 29.87 in 10.0 mi SW 12.7 mph 20.7 mph N/A   Overcast
9:15 AM 35.6 °F 26.2 °F 15.8 °F 44% 29.87 in 10.0 mi SW 15.0 mph 23.0 mph N/A   Overcast
9:35 AM 35.6 °F 25.9 °F 17.6 °F 48% 29.87 in 10.0 mi SW 16.1 mph 25.3 mph N/A   Overcast
9:55 AM 35.6 °F 25.5 °F 15.8 °F 44% 29.87 in 10.0 mi SW 17.3 mph 26.5 mph N/A   Overcast
10:15 AM 35.6 °F 24.2 °F 19.4 °F 52% 29.87 in 10.0 mi WSW 21.9 mph 29.9 mph N/A   Overcast
10:35 AM 35.6 °F 26.6 °F 19.4 °F 52% 29.87 in 10.0 mi WSW 13.8 mph 28.8 mph N/A   Overcast
10:55 AM 35.6 °F 24.8 °F 19.4 °F 52% 29.86 in 10.0 mi WSW 19.6 mph 27.6 mph N/A   Overcast
11:15 AM 35.6 °F 25.9 °F 19.4 °F 52% 29.86 in 10.0 mi WSW 16.1 mph 26.5 mph N/A   Overcast
11:35 AM 35.6 °F 27.1 °F 21.2 °F 56% 29.85 in 10.0 mi SW 12.7 mph 24.2 mph N/A   Overcast
11:55 AM 35.6 °F 27.1 °F 21.2 °F 56% 29.84 in 10.0 mi WSW 12.7 mph 18.4 mph N/A   Overcast
12:15 PM 37.4 °F 28.9 °F 21.2 °F 52% 29.83 in 10.0 mi WSW 13.8 mph 19.6 mph N/A   Mostly Cloudy
12:35 PM 35.6 °F 24.5 °F 23.0 °F 60% 29.84 in 2.5 mi West 20.7 mph 27.6 mph N/A   Mostly Cloudy
12:55 PM 35.6 °F 25.9 °F 24.8 °F 65% 29.84 in 10.0 mi West 16.1 mph 25.3 mph N/A   Mostly Cloudy
1:15 PM 35.6 °F 26.2 °F 17.6 °F 48% 29.85 in 10.0 mi West 15.0 mph 26.5 mph N/A   Mostly Cloudy
1:35 PM 35.6 °F 24.0 °F 12.2 °F 38% 29.85 in 8.0 mi West 23.0 mph 38.0 mph N/A   Scattered Clouds
1:55 PM 35.6 °F 24.2 °F 12.2 °F 38% 29.86 in 10.0 mi West 21.9 mph 32.2 mph N/A   Mostly Cloudy
2:15 PM 37.4 °F 29.3 °F 12.2 °F 36% 29.87 in 10.0 mi West 12.7 mph 21.9 mph N/A   Mostly Cloudy
2:35 PM 35.6 °F 24.5 °F 6.8 °F 30% 29.88 in 10.0 mi West 20.7 mph 31.1 mph N/A   Partly Cloudy
2:55 PM 33.8 °F 22.5 °F 8.6 °F 35% 29.89 in 10.0 mi WNW 19.6 mph 31.1 mph N/A   Mostly Cloudy
3:15 PM 33.8 °F 24.3 °F 8.6 °F 35% 29.90 in 10.0 mi WNW 13.8 mph 26.5 mph N/A   Overcast
3:35 PM 32.0 °F 20.8 °F 12.2 °F 44% 29.92 in 8.0 mi West 17.3 mph 29.9 mph N/A   Mostly Cloudy
3:55 PM 32.0 °F 19.5 °F 12.2 °F 44% 29.94 in 10.0 mi WNW 21.9 mph 33.4 mph N/A   Mostly Cloudy
4:15 PM 28.4 °F 15.4 °F 12.2 °F 51% 29.97 in 1.0 mi WNW 19.6 mph 34.5 mph N/A   Overcast
4:55 PM 24.8 °F 13.4 °F 17.6 °F 74% 30.02 in 2.5 mi NNW 12.7 mph 20.7 mph N/A   Overcast
5:15 PM 26.6 °F 13.1 °F 14.0 °F 59% 30.05 in 10.0 mi NW 19.6 mph 25.3 mph N/A   Mostly Cloudy
5:55 PM 24.8 °F 11.9 °F 3.2 °F 40% 30.10 in 10.0 mi NW 16.1 mph 27.6 mph N/A   Partly Cloudy
6:15 PM 23.0 °F 9.2 °F 1.4 °F 39% 30.12 in 10.0 mi WNW 17.3 mph 33.4 mph N/A   Mostly Cloudy
6:35 PM 21.2 °F 6.0 °F -0.4 °F 39% 30.14 in 10.0 mi WNW 19.6 mph 28.8 mph N/A   Partly Cloudy
6:55 PM 19.4 °F 5.5 °F -0.4 °F 42% 30.16 in 10.0 mi WNW 15.0 mph 27.6 mph N/A   Clear
7:15 PM 19.4 °F 3.6 °F -0.4 °F 42% 30.18 in 10.0 mi WNW 19.6 mph 31.1 mph N/A   Partly Cloudy
7:35 PM 17.6 °F 4.3 °F -0.4 °F 45% 30.20 in 10.0 mi WNW 12.7 mph 23.0 mph N/A   Partly Cloudy
7:55 PM 17.6 °F 7.3 °F -0.4 °F 45% 30.22 in 10.0 mi WNW 8.1 mph - N/A   Mostly Cloudy
8:15 PM 17.6 °F 5.0 °F -2.2 °F 42% 30.24 in 10.0 mi NW 11.5 mph 18.4 mph N/A   Overcast
8:35 PM 15.8 °F 1.4 °F -2.2 °F 45% 30.25 in 10.0 mi NW 13.8 mph 18.4 mph N/A   Overcast
8:55 PM 15.8 °F 2.1 °F -2.2 °F 45% 30.26 in 10.0 mi NNW 12.7 mph 23.0 mph N/A   Overcast
9:15 PM 14.0 °F -2.0 °F -2.2 °F 49% 30.27 in 10.0 mi NW 16.1 mph 26.5 mph N/A   Overcast
9:35 PM 12.2 °F -3.7 °F -2.2 °F 53% 30.30 in 10.0 mi North 15.0 mph 18.4 mph N/A   Overcast
9:55 PM 12.2 °F -2.5 °F -2.2 °F 53% 30.30 in 10.0 mi North 12.7 mph 20.7 mph N/A   Mostly Cloudy
10:15 PM 10.4 °F -3.3 °F -4.0 °F 52% 30.32 in 10.0 mi NNW 10.4 mph 18.4 mph N/A   Partly Cloudy
10:35 PM 10.4 °F -2.4 °F -4.0 °F 52% 30.33 in 10.0 mi NNW 9.2 mph - N/A   Clear
10:55 PM 10.4 °F -4.8 °F -5.8 °F 48% 30.34 in 10.0 mi NNW 12.7 mph - N/A   Clear
11:15 PM 10.4 °F -4.8 °F -5.8 °F 48% 30.34 in 10.0 mi NNW 12.7 mph 19.6 mph N/A   Clear
11:35 PM 10.4 °F -3.3 °F -5.8 °F 48% 30.36 in 10.0 mi NNW 10.4 mph 19.6 mph N/A   Clear
11:55 PM 8.6 °F -6.3 °F -5.8 °F 52% 30.36 in 10.0 mi NNW 11.5 mph 18.4 mph N/A   Clear